Location: Unspecified
(46.0725°N, 13.7344°E)
Time: 12:43:31
(UTC+02:00)

Cosmos 2058 - Pass Details

Date: 17 June 2024
Orbit: 545 x 564 km, 82.5° (Epoch: 16 July)

Event Time Altitude Azimuth Distance (km) Brightness Sun altitude
Exits shadow 03:08:22 - 146° (SE) 2,259 5.7 -15.2°
Reaches altitude 10° 03:09:39 10° 136° (SE) 1,837 5.3 -15.1°
Maximum altitude 03:12:41 21° 87° (E) 1,300 5.1 -14.8°
Drops below altitude 10° 03:15:44 10° 39° (NE) 1,858 6.9 -14.6°
Sets 03:18:19 0° 23° (NNE) 2,763 8.3 -14.3°
